Location: Kellogg
(38.0159°N, 90.0546°W)
Time: 01:13:45
(UTC+00:00)

Vanguard 2 - Pass Details

Date: 21 September 2024
Orbit: 552 x 2910 km, 32.9° (Epoch: 15 October)

Event Time Altitude Azimuth Distance (km) Brightness Sun altitude
Rises 05:50:44 0° 207° (SSW) 2,885 - -51.5°
Reaches altitude 10° 05:55:00 10° 165° (SSE) 1,825 - -51.5°
Maximum altitude 05:55:50 11° 153° (SSE) 1,782 - -51.5°
Drops below altitude 10° 05:56:39 10° 141° (SE) 1,813 - -51.5°
Sets 06:00:49 0° 99° (E) 2,805 - -51.5°
